FW4264 Weather Reports


time (UTC)temp
F
wind
direction
speed
knots
gust
knots
rain 1hr
in
rain 24hr
in
rain mn
in
humidity
%
barometer
mb
20260505194530 74 303 2.6 5.2 0.00 0.00 0.00 47 1013.9
20260505193030 74 303 1.7 5.2 0.00 0.00 0.00 48 1014.0
20260505191532 72 301 2.6 6.1 0.00 0.00 0.00 50 1014.0
20260505190031 72 307 3.5 8.7 0.00 0.00 0.00 52 1014.2
20260505184606 71 310 2.6 7.0 0.00 0.00 0.00 53 1014.3
20260505183031 70 302 2.6 6.1 0.00 0.00 0.00 54 1014.4
20260505181529 69 300 3.5 8.7 0.00 0.00 0.00 56 1014.4
20260505180032 68 308 4.3 11.3 0.00 0.00 0.00 57 1014.4
20260505174530 67 303 3.5 9.6 0.00 0.00 0.00 59 1014.4
20260505173029 66 305 3.5 8.7 0.00 0.00 0.00 61 1014.4
20260505171532 65 303 3.5 8.7 0.00 0.00 0.00 62 1014.4
20260505170029 65 310 2.6 6.1 0.00 0.00 0.00 63 1014.4
20260505164531 64 304 2.6 6.1 0.00 0.00 0.00 64 1014.4
20260505163029 64 310 2.6 8.7 0.00 0.00 0.00 64 1014.4
20260505161532 63 308 2.6 6.1 0.00 0.00 0.00 65 1014.4
20260505160108 63 301 2.6 7.0 0.00 0.00 0.00 65 1014.4
20260505151603 62 20 0.0 1.7 0.00 0.00 0.00 70 1014.0
20260505124531 60 79 0.0 2.6 0.00 0.00 0.00 69 1012.5
20260505121530 62 6 0.0 3.5 0.00 0.00 0.00 66 1012.3
20260505120145 62 69 0.0 3.5 0.00 0.00 0.00 65 1012.2
20260505114528 62 294 0.0 6.1 0.00 0.00 0.00 64 1012.2
20260505113034 62 152 0.0 2.6 0.00 0.00 0.00 65 1012.1
20260505101531 64 316 0.9 4.3 0.00 0.00 0.00 63 1011.4
20260505100035 64 57 0.0 2.6 0.00 0.00 0.00 63 1011.4
20260505094530 64 72 0.0 2.6 0.00 0.00 0.00 62 1011.3
20260505093032 65 333 0.9 7.0 0.00 0.00 0.00 62 1011.3
20260505091530 65 70 0.0 4.3 0.00 0.00 0.00 61 1011.2
20260505090037 0 0 0.0 0.0 0.00 0.00 0.00 100
20260505084532 65 69 0.0 1.7 0.00 0.00 0.00 62 1011.0
20260505080032 67 6 0.0 6.1 0.00 0.00 0.00 59 1010.9
20260505074530 67 35 0.0 4.3 0.00 0.00 0.00 59 1010.8
20260505073032 68 243 0.0 5.2 0.00 0.00 0.00 58 1010.7
20260505071531 67 302 0.9 5.2 0.00 0.00 0.00 58 1010.6
20260505070146 68 11 0.9 5.2 0.00 0.00 0.00 57 1010.5
20260505064529 68 44 0.0 4.3 0.00 0.00 0.00 56 1010.5
20260505063107 68 11 0.0 5.2 0.00 0.00 0.00 56 1010.3
20260505061530 68 358 0.0 5.2 0.00 0.00 0.00 54 1010.2
20260505060030 69 94 0.0 3.5 0.00 0.00 0.00 52 1010.2
20260505054645 69 213 0.9 6.1 0.00 0.00 0.00 52 1010.1
20260505053040 70 226 0.0 6.1 0.00 0.00 0.00 51 1009.9
20260505051535 70 193 0.9 5.2 0.00 0.00 0.00 50 1009.8
20260505041530 72 105 0.9 3.5 0.00 0.00 0.00 45 1009.4
20260505040044 72 156 0.0 4.3 0.00 0.00 0.00 44 1009.2
20260505034528 72 66 0.0 5.2 0.00 0.00 0.00 45 1008.9
20260505033107 72 210 0.0 6.1 0.00 0.00 0.00 45 1008.7
20260505031531 73 222 0.0 4.3 0.00 0.00 0.00 44 1008.7
20260505030032 74 164 0.0 6.1 0.00 0.00 0.00 43 1008.5
20260505024605 75 214 0.9 5.2 0.00 0.00 0.00 42 1008.3
20260505023031 76 171 0.0 3.5 0.00 0.00 0.00 41 1008.2
20260505021530 77 172 0.0 2.6 0.00 0.00 0.00 39 1008.2
20260505020033 78 213 0.9 4.3 0.00 0.00 0.00 38 1008.2
20260505013031 80 267 0.9 8.7 0.00 0.00 0.00 36 1008.1
20260505011531 81 301 1.7 7.0 0.00 0.00 0.00 35 1008.1
20260505004529 82 297 1.7 7.8 0.00 0.00 0.00 36 1008.0
20260505003031 82 291 2.6 7.8 0.00 0.00 0.00 36 1008.0
20260505000034 82 302 3.5 8.7 0.00 0.00 0.00 36 1008.1
20260504234531 83 301 4.3 11.3 0.00 0.00 0.00 36 1008.1
20260504233031 83 295 2.6 8.7 0.00 0.00 0.00 37 1008.1
20260504231531 83 293 3.5 9.6 0.00 0.00 0.00 36 1008.3
20260504230030 83 291 3.5 8.7 0.00 0.00 0.00 36 1008.5
20260504224608 83 303 3.5 9.6 0.00 0.00 0.00 35 1008.6
20260504223031 83 310 3.5 8.7 0.00 0.00 0.00 35 1008.7
20260504220030 83 291 2.6 7.0 0.00 0.00 0.00 36 1009.0
20260504214531 83 304 3.5 7.8 0.00 0.00 0.00 35 1009.1
20260504211531 83 302 2.6 8.7 0.00 0.00 0.00 34 1009.5
20260504210031 83 303 2.6 7.0 0.00 0.00 0.00 34 1009.6
20260504204530 83 300 2.6 7.0 0.00 0.00 0.00 35 1009.7
20260504203031 83 305 2.6 6.1 0.00 0.00 0.00 36 1009.9
20260504201529 82 300 2.6 5.2 0.00 0.00 0.00 36 1010.1